Location: Clarion
(42.7316°N, 93.7330°W)
Time: 08:54:01
(UTC+00:00)

Okean-O - Pass Details

Date: 22 April 2026
Orbit: 627 x 629 km, 97.9° (Epoch: 17 May)

Event Time Altitude Azimuth Distance (km) Brightness Sun altitude
Exits shadow 02:54:01 41° 134° (SE) 919 2.9 -18.6°
Maximum altitude 02:55:20 61° 74° (ENE) 716 2.6 -18.8°
Drops below altitude 10° 02:59:40 10° 354° (N) 2,016 5.8 -19.4°
Sets 03:01:53 0° 351° (N) 2,928 6.8 -19.8°
